Satellite: RESURS
Catalog number: 25394
Epoch time: 09245.93320460
Element set: 0314
Inclination: 098.3348 deg
RA of node: 274.3076 deg
Eccentricity: 0.0001982
Arg of perigee: 015.7944 deg
Mean anomaly: 344.3297 deg
Mean motion: 14.24188675 rev/day
Decay rate: -2.7e-07 rev/day^2
Epoch rev: 57946
Checksum: 321
Satellite: FENGYUN1
Catalog number: 25730
Epoch time: 09245.95712381
Element set: 0863
Inclination: 098.7588 deg
RA of node: 213.7999 deg
Eccentricity: 0.0022889
Arg of perigee: 359.0899 deg
Mean anomaly: 001.0226 deg
Mean motion: 14.07971298 rev/day
Decay rate: 5.41e-06 rev/day^2
Epoch rev: 53126
Checksum: 343
Satellite: OKEAN-0
Catalog number: 25860
Epoch time: 09245.51315776
Element set: 0776
Inclination: 097.7945 deg
RA of node: 223.6530 deg
Eccentricity: 0.0000764
Arg of perigee: 043.3127 deg
Mean anomaly: 316.8139 deg
Mean motion: 14.73585677 rev/day
Decay rate: 8.0e-08 rev/day^2
Epoch rev: 54453
Checksum: 320
Satellite: NOAA-16
Catalog number: 26536
Epoch time: 09245.78499536
Element set: 0546
Inclination: 099.1798 deg
RA of node: 251.3397 deg
Eccentricity: 0.0011390
Arg of perigee: 066.5077 deg
Mean anomaly: 293.7282 deg
Mean motion: 14.12531780 rev/day
Decay rate: 2.71e-06 rev/day^2
Epoch rev: 46125
Checksum: 336
Satellite: NOAA-17
Catalog number: 27453
Epoch time: 09245.91977640
Element set: 0545
Inclination: 098.4771 deg
RA of node: 302.2844 deg
Eccentricity: 0.0010656
Arg of perigee: 254.9971 deg
Mean anomaly: 105.0036 deg
Mean motion: 14.24087305 rev/day
Decay rate: 2.2e-07 rev/day^2
Epoch rev: 37381
Checksum: 306
Satellite: NOAA-18
Catalog number: 28654
Epoch time: 09245.96335776
Element set: 0031
Inclination: 098.9100 deg
RA of node: 188.6151 deg
Eccentricity: 0.0014921
Arg of perigee: 140.6731 deg
Mean anomaly: 219.5532 deg
Mean motion: 14.11284011 rev/day
Decay rate: 3.68e-06 rev/day^2
Epoch rev: 22092
Checksum: 292
Satellite: NOAA-19
Catalog number: 33591
Epoch time: 09245.96008318
Element set: 0236
Inclination: 098.7498 deg
RA of node: 189.7148 deg
Eccentricity: 0.0014702
Arg of perigee: 026.7850 deg
Mean anomaly: 333.4075 deg
Mean motion: 14.10984167 rev/day
Decay rate: 2.56e-06 rev/day^2
Epoch rev: 02940
Checksum: 326
/EX
SB KEPS @ AMSAT $ORB09246.M
Orbital Elements 09246.MISC
HR AMSAT ORBITAL ELEMENTS FOR MANNED AND MISCELLANEOUS SATELLITES
FROM WA5QGD FORT WORTH,TX September 3, 2009
Send Subscribe/unsubscribe to KEPS at
http://www.amsat.org/mailman/listinfo/keps
BID: ORB09246.M
TO ALL RADIO AMATEURS BT
Satellite: HUBBLE
Catalog number: 20580
Epoch time: 09244.65406660
Element set: 0441
Inclination: 028.4720 deg
RA of node: 323.2336 deg
Eccentricity: 0.0003224
Arg of perigee: 017.1890 deg
Mean anomaly: 342.8819 deg
Mean motion: 15.00825712 rev/day
Decay rate: 2.61e-06 rev/day^2
Epoch rev: 86135
Checksum: 265
Satellite: ISS
Catalog number: 25544
Epoch time: 09245.64853169
Element set: 0536
Inclination: 051.6400 deg
RA of node: 269.1982 deg
Eccentricity: 0.0009342
Arg of perigee: 045.4733 deg
Mean anomaly: 052.9797 deg
Mean motion: 15.73928673 rev/day
Decay rate: 1.2336e-04 rev/day^2
Epoch rev: 61815
Checksum: 326
Satellite: CO-58
Catalog number: 28895
Epoch time: 09245.72449255
Element set: 385
Inclination: 098.0469 deg
RA of node: 134.1250 deg
Eccentricity: 0.0018888
Arg of perigee: 104.6264 deg
Mean anomaly: 255.7032 deg
Mean motion: 14.59792155 rev/day
Decay rate: 2.21e-06 rev/day^2
Epoch rev: 20504
Checksum: 325
Satellite: FALCON
Catalog number: 30776
Epoch time: 09245.67217934
Element set: 0658
Inclination: 035.4350 deg
RA of node: 349.2776 deg
Eccentricity: 0.0001468
Arg of perigee: 282.8359 deg
Mean anomaly: 077.2193 deg
Mean motion: 15.03293840 rev/day
Decay rate: 2.32e-06 rev/day^2
Epoch rev: 13676
Checksum: 318
Satellite: MAST
Catalog number: 31126
Epoch time: 09246.58105012
Element set: 676
Inclination: 097.9816 deg
RA of node: 297.7669 deg
Eccentricity: 0.0095444
Arg of perigee: 037.0922 deg
Mean anomaly: 323.6831 deg
Mean motion: 14.53514252 rev/day
Decay rate: -1.0e-08 rev/day^2
Epoch rev: 12642
Checksum: 296
Satellite: CAPE1
Catalog number: 31130
Epoch time: 09245.11238245
Element set: 0694
Inclination: 097.9812 deg
RA of node: 294.3792 deg
Eccentricity: 0.0103735
Arg of perigee: 047.5354 deg
Mean anomaly: 313.4554 deg
Mean motion: 14.52082578 rev/day
Decay rate: 2.0e-08 rev/day^2
Epoch rev: 12585
Checksum: 294
Satellite: COMPASS
Catalog number: 32787
Epoch time: 09245.29362386
Element set: 0462
Inclination: 097.9363 deg
RA of node: 308.4411 deg
Eccentricity: 0.0016617
Arg of perigee: 138.7542 deg
Mean anomaly: 221.4912 deg
Mean motion: 14.81648030 rev/day
Decay rate: 2.24e-06 rev/day^2
Epoch rev: 07286
Checksum: 303
Satellite: AAUSAT2
Catalog number: 32788
Epoch time: 09245.66023417
Element set: 0450
Inclination: 097.9350 deg
RA of node: 308.8747 deg
Eccentricity: 0.0016124
Arg of perigee: 138.2193 deg
Mean anomaly: 222.0248 deg
Mean motion: 14.81771539 rev/day
Decay rate: 5.0e-08 rev/day^2
Epoch rev: 07292
Checksum: 301
Satellite: DO-64
Catalog number: 32789
Epoch time: 09245.81711938
Element set: 463
Inclination: 097.9393 deg
RA of node: 309.2434 deg
Eccentricity: 0.0016400
Arg of perigee: 136.2664 deg
Mean anomaly: 223.9845 deg
Mean motion: 14.81780080 rev/day
Decay rate: 4.23e-06 rev/day^2
Epoch rev: 7294
Checksum: 325
Satellite: CO-66
Catalog number: 32791
Epoch time: 09245.21039378
Element set: 444
Inclination: 097.9379 deg
RA of node: 308.3913 deg
Eccentricity: 0.0016618
Arg of perigee: 136.8040 deg
Mean anomaly: 223.4472 deg
Mean motion: 14.81471287 rev/day
Decay rate: 1.68e-06 rev/day^2
Epoch rev: 7281
Checksum: 324
Satellite: RS-30
Catalog number: 32953
Epoch time: 09245.86224501
Element set: 395
Inclination: 082.4996 deg
RA of node: 208.3072 deg
Eccentricity: 0.0020033
Arg of perigee: 013.4639 deg
Mean anomaly: 346.6973 deg
Mean motion: 12.43002898 rev/day
Decay rate: 1.0e-07 rev/day^2
Epoch rev: 5804
Checksum: 288
Satellite: TACSAT-3
Catalog number: 35001
Epoch time: 09245.88643891
Element set: 0100
Inclination: 040.4548 deg
RA of node: 135.9216 deg
Eccentricity: 0.0024655
Arg of perigee: 016.2996 deg
Mean anomaly: 343.8611 deg
Mean motion: 15.39101085 rev/day
Decay rate: 2.099e-05 rev/day^2
Epoch rev: 01632
Checksum: 287
Satellite: PHARMSAT
Catalog number: 35002
Epoch time: 09245.89853753
Element set: 0093
Inclination: 040.4677 deg
RA of node: 135.2296 deg
Eccentricity: 0.0026883
Arg of perigee: 020.7891 deg
Mean anomaly: 339.4037 deg
Mean motion: 15.39855246 rev/day
Decay rate: 1.660e-05 rev/day^2
Epoch rev: 01632
Checksum: 310
Satellite: HAWKSAT1
Catalog number: 35003
Epoch time: 09246.90045768
Element set: 90
Inclination: 040.4601 deg
RA of node: 128.6556 deg
Eccentricity: 0.0027447
Arg of perigee: 031.3729 deg
Mean anomaly: 328.8721 deg
Mean motion: 15.40534533 rev/day
Decay rate: 3.525e-05 rev/day^2
Epoch rev: 1649
Checksum: 285
Satellite: CP6
Catalog number: 35004
Epoch time: 09245.92749964
Element set: 0094
Inclination: 040.4604 deg
RA of node: 134.4848 deg
Eccentricity: 0.0027908
Arg of perigee: 024.2914 deg
Mean anomaly: 335.9249 deg
Mean motion: 15.40573763 rev/day
Decay rate: 4.255e-05 rev/day^2
Epoch rev: 01633
Checksum: 312
Satellite: AEROCUB3
Catalog number: 35005
Epoch time: 09245.94011338
Element set: 0084
Inclination: 040.4726 deg
RA of node: 134.7010 deg
Eccentricity: 0.0027485
Arg of perigee: 021.6736 deg
Mean anomaly: 338.5250 deg
Mean motion: 15.40374909 rev/day
Decay rate: 4.062e-05 rev/day^2
Epoch rev: 01633
Checksum: 268
Satellite: DRAGNSAT
Catalog number: 35690
Epoch time: 09245.46831881
Element set: 0047
Inclination: 051.6405 deg
RA of node: 268.1637 deg
Eccentricity: 0.0002165
Arg of perigee: 179.8406 deg
Mean anomaly: 180.2600 deg
Mean motion: 15.81759814 rev/day
Decay rate: 2.1964e-04 rev/day^2
Epoch rev: 00537
Checksum: 306
Satellite: POLLUX
Catalog number: 35693
Epoch time: 09245.47951021
Element set: 0035
Inclination: 051.6406 deg
RA of node: 268.2443 deg
Eccentricity: 0.0003795
Arg of perigee: 116.7688 deg
Mean anomaly: 243.3699 deg
Mean motion: 15.81185727 rev/day
Decay rate: 2.0334e-04 rev/day^2
Epoch rev: 00534
Checksum: 307
Satellite: CASTOR
Catalog number: 35694
Epoch time: 09245.48778335
Element set: 0034
Inclination: 051.6412 deg
RA of node: 268.3064 deg
Eccentricity: 0.0004142
Arg of perigee: 128.4998 deg
Mean anomaly: 231.6375 deg
Mean motion: 15.80534110 rev/day
Decay rate: 1.0971e-04 rev/day^2
Epoch rev: 00534
Checksum: 291
/EX
More information about the Keps
mailing list